EDW5155 GCLP-LSZH

Flight info

Callsign EDW5155
Flight time 3h 43m
Altitude 38000
Route VASTO UN858 IBLIV/N0450F400 UN858 AKUDA DCT PESAS DCT OSLEP DCT OXACA DCT HIJ DCT CRISA DCT INPAN DCT VTB DCT PALIO DCT SEGRE DCT YAKXU DCT RONNY DCT TOPTU DCT TOU DCT GAI DCT MEN DCT NINUN DCT LATAM DCT ETREK DCT LTP DCT SOPLO DCT OMASI DCT KINNI DCT SOSAL/N0433F320 DCT KORED N871 BERSU
Aircraft A343/H-SDE2E3FGHIJ4J5M1RWXY/LB1D1

Departure

Time 2026-05-01 09:23
Airport Gran Canaria Airport (GCLP)

Arrival

Time 2026-05-01 13:07
Airport Zürich Airport (LSZH)
Time Latitude Longitude Altitude Speed Heading
2026-05-01 09:11 27.93315 -15.39054 88 ft 0 kts 291°
2026-05-01 09:15 27.93314 -15.39051 88 ft 2 kts 291°
2026-05-01 09:15 27.93308 -15.39034 90 ft 2 kts 291°
2026-05-01 09:15 27.93302 -15.39018 89 ft 2 kts 291°
2026-05-01 09:15 27.93296 -15.39001 86 ft 2 kts 291°
2026-05-01 09:16 27.93289 -15.38983 88 ft 2 kts 256°
2026-05-01 09:16 27.93295 -15.38967 86 ft 2 kts 221°
2026-05-01 09:16 27.93300 -15.38961 85 ft 0 kts 198°
2026-05-01 09:19 27.93241 -15.38985 87 ft 11 kts 201°
2026-05-01 09:19 27.93153 -15.39023 89 ft 16 kts 201°
2026-05-01 09:19 27.93032 -15.39075 88 ft 21 kts 201°
2026-05-01 09:20 27.92866 -15.39081 90 ft 12 kts 117°
2026-05-01 09:20 27.92741 -15.39047 90 ft 13 kts 204°
2026-05-01 09:21 27.92545 -15.39144 97 ft 19 kts 200°
2026-05-01 09:21 27.92406 -15.39201 100 ft 24 kts 199°
2026-05-01 09:21 27.92027 -15.39301 94 ft 35 kts 173°
2026-05-01 09:22 27.91942 -15.39215 92 ft 6 kts 36°
2026-05-01 09:22 27.92399 -15.39007 84 ft 101 kts 21°
2026-05-01 09:23 27.93279 -15.38605 101 ft 167 kts 24°
2026-05-01 09:23 27.95760 -15.38177 1710 ft 192 kts 334°
2026-05-01 09:24 27.96840 -15.40952 3052 ft 232 kts 257°
2026-05-01 09:24 27.96025 -15.42585 3720 ft 246 kts 223°
2026-05-01 09:24 27.92835 -15.43333 5441 ft 248 kts 159°
2026-05-01 09:25 27.89613 -15.41843 6651 ft 269 kts 172°
2026-05-01 09:25 27.85829 -15.42064 8208 ft 276 kts 190°
2026-05-01 09:26 27.83894 -15.42005 8962 ft 285 kts 166°
2026-05-01 09:26 27.80984 -15.38953 10461 ft 302 kts 121°
2026-05-01 09:26 27.79984 -15.36783 10814 ft 321 kts 118°
2026-05-01 09:27 27.78008 -15.32006 11543 ft 353 kts 116°
2026-05-01 09:27 27.76985 -15.29423 11978 ft 366 kts 116°
2026-05-01 09:27 27.75922 -15.26759 12407 ft 377 kts 117°
2026-05-01 09:28 27.74813 -15.24030 12855 ft 387 kts 117°
2026-05-01 09:28 27.73712 -15.21214 13283 ft 399 kts 112°
2026-05-01 09:28 27.73292 -15.18076 13804 ft 412 kts 91°
2026-05-01 09:28 27.73854 -15.14883 14379 ft 421 kts 71°
2026-05-01 09:29 27.77541 -15.09786 15550 ft 430 kts 33°
2026-05-01 09:29 27.80274 -15.08435 16130 ft 431 kts 13°
2026-05-01 09:30 27.86150 -15.08826 17300 ft 427 kts 335°
2026-05-01 09:30 27.88779 -15.10383 17906 ft 426 kts 327°
2026-05-01 09:30 27.94447 -15.12465 18901 ft 446 kts 354°
2026-05-01 09:31 27.97548 -15.12087 19429 ft 452 kts 11°
2026-05-01 09:31 28.00581 -15.11097 19976 ft 454 kts 15°
2026-05-01 09:31 28.06726 -15.09442 20951 ft 457 kts
2026-05-01 09:32 28.09854 -15.09289 21400 ft 457 kts 355°
2026-05-01 09:32 28.16098 -15.10466 22386 ft 455 kts 340°
2026-05-01 09:32 28.19084 -15.11659 22885 ft 455 kts 335°
2026-05-01 09:33 28.21944 -15.13203 23344 ft 454 kts 327°
2026-05-01 09:33 28.24637 -15.15074 23822 ft 454 kts 323°
2026-05-01 09:33 28.29192 -15.19464 24577 ft 453 kts 311°
2026-05-01 09:34 28.31440 -15.21986 24930 ft 458 kts 315°
2026-05-01 09:34 28.34182 -15.23903 25293 ft 470 kts 332°
2026-05-01 09:34 28.40729 -15.24854 26202 ft 487 kts
2026-05-01 09:35 28.44012 -15.23818 26608 ft 494 kts 20°
2026-05-01 09:35 28.49484 -15.19125 27424 ft 503 kts 46°
2026-05-01 09:35 28.51850 -15.16176 27803 ft 506 kts 46°
2026-05-01 09:36 28.54243 -15.13235 28171 ft 508 kts 45°
2026-05-01 09:36 28.56710 -15.10347 28514 ft 510 kts 44°
2026-05-01 09:36 28.59265 -15.07537 28851 ft 512 kts 42°
2026-05-01 09:36 28.61912 -15.04804 29183 ft 513 kts 40°
2026-05-01 09:37 28.64629 -15.02158 29524 ft 514 kts 38°
2026-05-01 09:37 28.70192 -14.97116 30544 ft 508 kts 36°
2026-05-01 09:37 28.72972 -14.94741 31075 ft 504 kts 35°
2026-05-01 09:38 28.78651 -14.90080 31842 ft 503 kts 33°
2026-05-01 09:38 28.81521 -14.87803 32247 ft 502 kts 32°
2026-05-01 09:38 28.84397 -14.85561 32664 ft 501 kts 32°
2026-05-01 09:39 28.90175 -14.81173 33505 ft 499 kts 31°
2026-05-01 09:39 28.93072 -14.78994 33939 ft 498 kts 31°
2026-05-01 09:39 28.95965 -14.76821 34350 ft 497 kts 31°
2026-05-01 09:40 28.98817 -14.74675 34691 ft 497 kts 31°
2026-05-01 09:40 29.04595 -14.70315 35342 ft 499 kts 31°
2026-05-01 09:40 29.07492 -14.68125 35697 ft 499 kts 31°
2026-05-01 09:41 29.10381 -14.65935 36058 ft 498 kts 30°
2026-05-01 09:41 29.16162 -14.61547 36773 ft 498 kts 30°
2026-05-01 09:41 29.19016 -14.59377 37129 ft 498 kts 30°
2026-05-01 09:42 29.21902 -14.57178 37490 ft 498 kts 30°
2026-05-01 09:42 29.24777 -14.54987 37864 ft 495 kts 30°
2026-05-01 09:42 29.30443 -14.50661 38138 ft 490 kts 30°
2026-05-01 09:43 29.36191 -14.46279 38181 ft 501 kts 30°
2026-05-01 09:43 29.41657 -14.42105 38188 ft 500 kts 30°
2026-05-01 09:44 29.49328 -14.36224 38203 ft 497 kts 30°
2026-05-01 09:45 29.55085 -14.31804 38191 ft 498 kts 30°
2026-05-01 09:45 29.63744 -14.25138 38200 ft 499 kts 30°
2026-05-01 09:46 29.69507 -14.20688 38194 ft 499 kts 30°
2026-05-01 09:46 29.75269 -14.16233 38193 ft 499 kts 30°
2026-05-01 09:47 29.81036 -14.11790 38193 ft 498 kts 30°
2026-05-01 09:47 29.86759 -14.07377 38195 ft 498 kts 30°
2026-05-01 09:48 29.92522 -14.02925 38199 ft 499 kts 30°
2026-05-01 09:48 29.98286 -13.98462 38192 ft 499 kts 30°
2026-05-01 09:49 30.04046 -13.93993 38192 ft 499 kts 30°
2026-05-01 09:49 30.09781 -13.89534 38193 ft 498 kts 30°
2026-05-01 09:50 30.15487 -13.85089 38199 ft 498 kts 30°
2026-05-01 09:50 30.21250 -13.80595 38196 ft 499 kts 30°
2026-05-01 09:51 30.26971 -13.76123 38199 ft 500 kts 30°
2026-05-01 09:51 30.32737 -13.71609 38196 ft 500 kts 30°
2026-05-01 09:52 30.38507 -13.67084 38193 ft 500 kts 30°
2026-05-01 09:52 30.44265 -13.62558 38195 ft 499 kts 30°
2026-05-01 09:53 30.50020 -13.58021 38195 ft 500 kts 30°
2026-05-01 09:53 30.55401 -13.53763 38205 ft 502 kts 30°
2026-05-01 09:54 30.61182 -13.49174 38196 ft 503 kts 30°
2026-05-01 09:54 30.66941 -13.44587 38194 ft 501 kts 30°
2026-05-01 09:55 30.72684 -13.40004 38199 ft 501 kts 30°
2026-05-01 09:55 30.78441 -13.35401 38197 ft 502 kts 31°
2026-05-01 09:56 30.84202 -13.30784 38213 ft 502 kts 31°
2026-05-01 09:56 30.89969 -13.26153 38200 ft 503 kts 30°
2026-05-01 09:57 30.95717 -13.21579 38198 ft 503 kts 30°
2026-05-01 09:57 31.01509 -13.16980 38197 ft 503 kts 30°
2026-05-01 09:58 31.07291 -13.12385 38197 ft 502 kts 30°
2026-05-01 09:58 31.13080 -13.07776 38223 ft 503 kts 30°
2026-05-01 09:59 31.18826 -13.03193 38199 ft 506 kts 30°
2026-05-01 09:59 31.24601 -12.98579 38194 ft 505 kts 30°
2026-05-01 10:00 31.30396 -12.93939 38196 ft 504 kts 30°
2026-05-01 10:00 31.36190 -12.89294 38201 ft 505 kts 30°
2026-05-01 10:01 31.41989 -12.84637 38198 ft 506 kts 30°
2026-05-01 10:01 31.47785 -12.79970 38201 ft 505 kts 30°
2026-05-01 10:02 31.53584 -12.75296 38198 ft 505 kts 30°
2026-05-01 10:02 31.59383 -12.70616 38199 ft 506 kts 30°
2026-05-01 10:03 31.65183 -12.65928 38197 ft 506 kts 30°
2026-05-01 10:03 31.70937 -12.61270 38197 ft 505 kts 30°
2026-05-01 10:04 31.76377 -12.56855 38203 ft 506 kts 30°
2026-05-01 10:04 31.82171 -12.52147 38201 ft 507 kts 30°
2026-05-01 10:05 31.87976 -12.47424 38198 ft 506 kts 30°
2026-05-01 10:05 31.93771 -12.42697 38199 ft 506 kts 30°
2026-05-01 10:06 31.99568 -12.37978 38201 ft 506 kts 30°
2026-05-01 10:06 32.05345 -12.33277 38193 ft 508 kts 30°
2026-05-01 10:07 32.11168 -12.28537 38211 ft 508 kts 30°
2026-05-01 10:07 32.16982 -12.23797 38191 ft 507 kts 30°
2026-05-01 10:08 32.25692 -12.16682 38206 ft 508 kts 30°
2026-05-01 10:09 32.31507 -12.11919 38221 ft 509 kts 30°
2026-05-01 10:09 32.37310 -12.07146 38203 ft 507 kts 30°
2026-05-01 10:10 32.43082 -12.02402 38195 ft 507 kts 30°
2026-05-01 10:10 32.51717 -11.95297 38199 ft 509 kts 30°
2026-05-01 10:11 32.57526 -11.90506 38196 ft 508 kts 30°
2026-05-01 10:11 32.63317 -11.85714 38209 ft 507 kts 30°
2026-05-01 10:12 32.68125 -11.81732 38198 ft 506 kts 30°
2026-05-01 10:13 32.77782 -11.73723 38198 ft 508 kts 30°
2026-05-01 10:13 32.83571 -11.68913 38196 ft 507 kts 30°
2026-05-01 10:14 32.92196 -11.61727 38197 ft 507 kts 30°
2026-05-01 10:14 32.97813 -11.57037 38198 ft 507 kts 30°
2026-05-01 10:15 33.03403 -11.52361 38197 ft 508 kts 30°
2026-05-01 10:15 33.09184 -11.47517 38196 ft 507 kts 30°
2026-05-01 10:16 33.14951 -11.42673 38197 ft 507 kts 30°
2026-05-01 10:17 33.23586 -11.35385 38202 ft 507 kts 30°
2026-05-01 10:17 33.32213 -11.28077 38213 ft 507 kts 30°
2026-05-01 10:18 33.40828 -11.20756 38190 ft 508 kts 30°
2026-05-01 10:19 33.46591 -11.15847 38205 ft 507 kts 30°
2026-05-01 10:19 33.52331 -11.10949 38197 ft 506 kts 30°
2026-05-01 10:20 33.60934 -11.03589 38198 ft 507 kts 30°
2026-05-01 10:20 33.66655 -10.98683 38197 ft 507 kts 30°
2026-05-01 10:21 33.75221 -10.91324 38212 ft 506 kts 31°
2026-05-01 10:22 33.83756 -10.83976 38195 ft 504 kts 31°
2026-05-01 10:23 33.92319 -10.76579 38192 ft 506 kts 31°
2026-05-01 10:23 34.00861 -10.69181 38194 ft 505 kts 31°
2026-05-01 10:24 34.12312 -10.59234 38198 ft 508 kts 31°
2026-05-01 10:25 34.23734 -10.49271 38197 ft 504 kts 31°
2026-05-01 10:26 34.29014 -10.44658 38219 ft 506 kts 31°
2026-05-01 10:27 34.40447 -10.34635 38197 ft 506 kts 31°
2026-05-01 10:28 34.49003 -10.27118 38195 ft 506 kts 31°
2026-05-01 10:28 34.57571 -10.19568 38220 ft 508 kts 30°
2026-05-01 10:29 34.66106 -10.12046 38198 ft 506 kts 30°
2026-05-01 10:30 34.77548 -10.01991 38200 ft 508 kts 30°
2026-05-01 10:31 34.88027 -9.92751 38203 ft 510 kts 30°
2026-05-01 10:32 34.96556 -9.85207 38196 ft 510 kts 30°
2026-05-01 10:33 35.08008 -9.75026 38198 ft 507 kts 30°
2026-05-01 10:34 35.16614 -9.67363 38204 ft 513 kts 30°
2026-05-01 10:34 35.22376 -9.62221 38188 ft 511 kts 30°
2026-05-01 10:35 35.30978 -9.54521 38186 ft 511 kts 30°
2026-05-01 10:35 35.36718 -9.49376 38204 ft 512 kts 30°
2026-05-01 10:36 35.45314 -9.41639 38200 ft 514 kts 30°
2026-05-01 10:37 35.51070 -9.36451 38201 ft 513 kts 30°
2026-05-01 10:37 35.59360 -9.28965 38198 ft 513 kts 30°
2026-05-01 10:38 35.65112 -9.23760 38203 ft 514 kts 30°
2026-05-01 10:38 35.70827 -9.18579 38198 ft 513 kts 30°
2026-05-01 10:39 35.76572 -9.13359 38196 ft 513 kts 30°
2026-05-01 10:39 35.82309 -9.08134 38197 ft 513 kts 30°
2026-05-01 10:40 35.88046 -9.02894 38195 ft 512 kts 30°
2026-05-01 10:40 35.93767 -8.97650 38199 ft 513 kts 31°
2026-05-01 10:41 35.98935 -8.91403 38193 ft 524 kts 42°
2026-05-01 10:42 36.06170 -8.81330 38199 ft 524 kts 44°
2026-05-01 10:42 36.10939 -8.74515 38193 ft 524 kts 44°
2026-05-01 10:43 36.15688 -8.67680 38189 ft 523 kts 44°
2026-05-01 10:43 36.20420 -8.60847 38214 ft 523 kts 44°
2026-05-01 10:44 36.25171 -8.53977 38199 ft 526 kts 44°
2026-05-01 10:44 36.29881 -8.47155 38195 ft 525 kts 44°
2026-05-01 10:45 36.34619 -8.40275 38196 ft 524 kts 44°
2026-05-01 10:45 36.39319 -8.33438 38192 ft 524 kts 44°
2026-05-01 10:46 36.44022 -8.26572 38186 ft 522 kts 44°
2026-05-01 10:46 36.48723 -8.19703 38204 ft 523 kts 44°
2026-05-01 10:47 36.53461 -8.12772 38194 ft 526 kts 44°
2026-05-01 10:47 36.58159 -8.05883 38189 ft 524 kts 44°
2026-05-01 10:48 36.62876 -7.98948 38193 ft 524 kts 44°
2026-05-01 10:48 36.67585 -7.92012 38190 ft 525 kts 44°
2026-05-01 10:49 36.72298 -7.85058 38174 ft 525 kts 44°
2026-05-01 10:49 36.77010 -7.78086 38168 ft 526 kts 44°
2026-05-01 10:50 36.81733 -7.71085 38187 ft 527 kts 44°
2026-05-01 10:50 36.86121 -7.64565 38166 ft 526 kts 44°
2026-05-01 10:51 36.90816 -7.57567 38188 ft 525 kts 44°
2026-05-01 10:51 36.95501 -7.50564 38172 ft 524 kts 44°
2026-05-01 10:52 37.00190 -7.43555 38171 ft 525 kts 44°
2026-05-01 10:52 37.04895 -7.36535 38176 ft 527 kts 44°
2026-05-01 10:53 37.09592 -7.29546 38169 ft 527 kts 44°
2026-05-01 10:53 37.14303 -7.22530 38170 ft 525 kts 44°
2026-05-01 10:54 37.18983 -7.15543 38169 ft 524 kts 44°
2026-05-01 10:54 37.23680 -7.08524 38168 ft 524 kts 44°
2026-05-01 10:55 37.28345 -7.01546 38182 ft 525 kts 44°
2026-05-01 10:55 37.33031 -6.94516 38167 ft 524 kts 44°
2026-05-01 10:56 37.37706 -6.87487 38168 ft 524 kts 44°
2026-05-01 10:56 37.42374 -6.80446 38163 ft 522 kts 44°
2026-05-01 10:57 37.47002 -6.73444 38154 ft 519 kts 44°
2026-05-01 10:57 37.51606 -6.66477 38156 ft 521 kts 44°
2026-05-01 10:58 37.56247 -6.59449 38152 ft 521 kts 44°
2026-05-01 10:58 37.60817 -6.52504 38152 ft 519 kts 44°
2026-05-01 10:59 37.65404 -6.45513 38150 ft 519 kts 44°
2026-05-01 10:59 37.69968 -6.38529 38145 ft 512 kts 44°
2026-05-01 11:00 37.74505 -6.31582 38146 ft 513 kts 44°
2026-05-01 11:00 37.79071 -6.24585 38164 ft 516 kts 44°
2026-05-01 11:01 37.83621 -6.17597 38148 ft 513 kts 44°
2026-05-01 11:01 37.88142 -6.10629 38145 ft 513 kts 44°
2026-05-01 11:02 37.92630 -6.03706 38137 ft 505 kts 45°
2026-05-01 11:02 37.97017 -5.96810 38139 ft 501 kts 46°
2026-05-01 11:03 38.01387 -5.89877 38141 ft 505 kts 46°
2026-05-01 11:03 38.05449 -5.83405 38162 ft 505 kts 46°
2026-05-01 11:04 38.09789 -5.76485 38140 ft 502 kts 47°
2026-05-01 11:04 38.14119 -5.69539 38142 ft 502 kts 47°
2026-05-01 11:05 38.18443 -5.62593 38139 ft 499 kts 47°
2026-05-01 11:05 38.22752 -5.55640 38140 ft 500 kts 47°
2026-05-01 11:06 38.27056 -5.48681 38139 ft 501 kts 47°
2026-05-01 11:06 38.31367 -5.41696 38136 ft 501 kts 47°
2026-05-01 11:07 38.37811 -5.31232 38135 ft 500 kts 47°
2026-05-01 11:07 38.42061 -5.24321 38135 ft 496 kts 48°
2026-05-01 11:08 38.46310 -5.17377 38142 ft 497 kts 48°
2026-05-01 11:09 38.53081 -5.07371 38141 ft 494 kts 41°
2026-05-01 11:09 38.57925 -5.01151 38152 ft 492 kts 40°
2026-05-01 11:10 38.65181 -4.91999 38141 ft 490 kts 40°
2026-05-01 11:10 38.70023 -4.85903 38150 ft 488 kts 40°
2026-05-01 11:11 38.74820 -4.79848 38149 ft 489 kts 40°
2026-05-01 11:11 38.79669 -4.73714 38160 ft 490 kts 40°
2026-05-01 11:12 38.84516 -4.67569 38153 ft 488 kts 41°
2026-05-01 11:12 38.89343 -4.61424 38154 ft 488 kts 41°
2026-05-01 11:13 38.94172 -4.55270 38157 ft 489 kts 41°
2026-05-01 11:13 38.98993 -4.49130 38151 ft 486 kts 41°
2026-05-01 11:14 39.03764 -4.43045 38151 ft 487 kts 41°
2026-05-01 11:14 39.08580 -4.36902 38155 ft 487 kts 41°
2026-05-01 11:15 39.13388 -4.30738 38152 ft 486 kts 41°
2026-05-01 11:15 39.18178 -4.24581 38159 ft 487 kts 41°
2026-05-01 11:16 39.22634 -4.18838 38157 ft 487 kts 41°
2026-05-01 11:16 39.27428 -4.12645 38154 ft 487 kts 41°
2026-05-01 11:17 39.32213 -4.06462 38163 ft 486 kts 42°
2026-05-01 11:17 39.36988 -4.00269 38143 ft 487 kts 42°
2026-05-01 11:18 39.41746 -3.94080 38143 ft 487 kts 42°
2026-05-01 11:18 39.46513 -3.87863 38164 ft 486 kts 42°
2026-05-01 11:19 39.51274 -3.81640 38140 ft 487 kts 43°
2026-05-01 11:19 39.55235 -3.76473 38156 ft 484 kts 43°
2026-05-01 11:20 39.59969 -3.70278 38153 ft 484 kts 43°
2026-05-01 11:20 39.64713 -3.64056 38150 ft 485 kts 43°
2026-05-01 11:21 39.69460 -3.57811 38152 ft 485 kts 43°
2026-05-01 11:21 39.74189 -3.51569 38152 ft 484 kts 43°
2026-05-01 11:22 39.79265 -3.45867 38150 ft 481 kts 34°
2026-05-01 11:22 39.84750 -3.40875 38153 ft 480 kts 32°
2026-05-01 11:23 39.90275 -3.36040 38156 ft 480 kts 31°
2026-05-01 11:23 39.95790 -3.31267 38157 ft 479 kts 31°
2026-05-01 11:24 40.01336 -3.26479 38169 ft 480 kts 31°
2026-05-01 11:25 40.09672 -3.19267 38164 ft 480 kts 31°
2026-05-01 11:25 40.18011 -3.12019 38167 ft 480 kts 31°
2026-05-01 11:26 40.26357 -3.04743 38173 ft 481 kts 31°
2026-05-01 11:27 40.31915 -2.99897 38163 ft 478 kts 31°
2026-05-01 11:27 40.37452 -2.95069 38169 ft 478 kts 31°
2026-05-01 11:28 40.42581 -2.90588 38162 ft 480 kts 31°
2026-05-01 11:28 40.48133 -2.85727 38171 ft 479 kts 31°
2026-05-01 11:29 40.56438 -2.78427 38169 ft 477 kts 31°
2026-05-01 11:30 40.64746 -2.71098 38163 ft 479 kts 31°
2026-05-01 11:30 40.70251 -2.66225 38171 ft 479 kts 31°
2026-05-01 11:31 40.75752 -2.61339 38172 ft 475 kts 31°
2026-05-01 11:31 40.81242 -2.56460 38171 ft 477 kts 31°
2026-05-01 11:32 40.86753 -2.51556 38166 ft 478 kts 31°
2026-05-01 11:32 40.92256 -2.46647 38172 ft 476 kts 31°
2026-05-01 11:33 40.97743 -2.41735 38172 ft 475 kts 31°
2026-05-01 11:33 41.03122 -2.36598 38172 ft 478 kts 34°
2026-05-01 11:34 41.08359 -2.31196 38163 ft 479 kts 35°
2026-05-01 11:34 41.13581 -2.25708 38176 ft 478 kts 36°
2026-05-01 11:35 41.18703 -2.20279 38170 ft 478 kts 36°
2026-05-01 11:35 41.23887 -2.14758 38169 ft 478 kts 36°
2026-05-01 11:36 41.29017 -2.09279 38173 ft 478 kts 36°
2026-05-01 11:36 41.34198 -2.03734 38174 ft 478 kts 37°
2026-05-01 11:37 41.39375 -1.98187 38174 ft 478 kts 37°
2026-05-01 11:37 41.44559 -1.92613 38175 ft 479 kts 37°
2026-05-01 11:38 41.49748 -1.87034 38179 ft 479 kts 37°
2026-05-01 11:38 41.54940 -1.81432 38185 ft 480 kts 38°
2026-05-01 11:39 41.60134 -1.75814 38186 ft 480 kts 38°
2026-05-01 11:39 41.65322 -1.70180 38167 ft 480 kts 38°
2026-05-01 11:40 41.70474 -1.64573 38188 ft 480 kts 38°
2026-05-01 11:40 41.75656 -1.58924 38168 ft 480 kts 38°
2026-05-01 11:41 41.80463 -1.53678 38175 ft 481 kts 38°
2026-05-01 11:41 41.85667 -1.47996 38180 ft 482 kts 38°
2026-05-01 11:42 41.90867 -1.42291 38180 ft 482 kts 38°
2026-05-01 11:42 41.96057 -1.36579 38184 ft 481 kts 38°
2026-05-01 11:43 42.01205 -1.30898 38183 ft 482 kts 39°
2026-05-01 11:43 42.06385 -1.25168 38182 ft 483 kts 39°
2026-05-01 11:44 42.14170 -1.16555 38190 ft 482 kts 38°
2026-05-01 11:44 42.19364 -1.10807 38191 ft 483 kts 39°
2026-05-01 11:45 42.24577 -1.05015 38192 ft 487 kts 39°
2026-05-01 11:45 42.29802 -0.99193 38189 ft 486 kts 39°
2026-05-01 11:46 42.35015 -0.93370 38188 ft 486 kts 39°
2026-05-01 11:46 42.40201 -0.87535 38185 ft 485 kts 40°
2026-05-01 11:47 42.44745 -0.80829 38180 ft 485 kts 50°
2026-05-01 11:47 42.48986 -0.73703 38191 ft 484 kts 51°
2026-05-01 11:48 42.53140 -0.66500 38189 ft 484 kts 52°
2026-05-01 11:48 42.57235 -0.59306 38204 ft 484 kts 52°
2026-05-01 11:49 42.61336 -0.52057 38203 ft 485 kts 52°
2026-05-01 11:49 42.65406 -0.44836 38218 ft 486 kts 52°
2026-05-01 11:50 42.69485 -0.37577 38218 ft 485 kts 52°
2026-05-01 11:50 42.73582 -0.30263 38216 ft 485 kts 52°
2026-05-01 11:51 42.77675 -0.22953 38219 ft 486 kts 52°
2026-05-01 11:51 42.81890 -0.15746 38218 ft 486 kts 51°
2026-05-01 11:52 42.86162 -0.08600 38215 ft 486 kts 50°
2026-05-01 11:52 42.90446 -0.01463 38220 ft 486 kts 50°
2026-05-01 11:53 42.94707 0.05654 38208 ft 489 kts 50°
2026-05-01 11:53 42.99012 0.12851 38210 ft 489 kts 50°
2026-05-01 11:54 43.03304 0.20043 38212 ft 487 kts 50°
2026-05-01 11:54 43.07558 0.27188 38211 ft 482 kts 51°
2026-05-01 11:55 43.11795 0.34327 38198 ft 484 kts 51°
2026-05-01 11:55 43.15713 0.40945 38195 ft 485 kts 51°
2026-05-01 11:56 43.19953 0.48125 38191 ft 483 kts 51°
2026-05-01 11:56 43.24176 0.55293 38194 ft 483 kts 51°
2026-05-01 11:57 43.27687 0.61264 38195 ft 484 kts 51°
2026-05-01 11:57 43.32626 0.69690 38195 ft 484 kts 51°
2026-05-01 11:58 43.36844 0.76909 38189 ft 483 kts 51°
2026-05-01 11:59 43.43113 0.87669 38198 ft 483 kts 51°
2026-05-01 11:59 43.47314 0.94893 38199 ft 482 kts 52°
2026-05-01 12:00 43.53567 1.05694 38201 ft 482 kts 52°
2026-05-01 12:01 43.59837 1.16577 38206 ft 483 kts 52°
2026-05-01 12:01 43.64036 1.23879 38213 ft 484 kts 52°
2026-05-01 12:02 43.68142 1.31156 38212 ft 482 kts 53°
2026-05-01 12:02 43.72177 1.38585 38209 ft 483 kts 54°
2026-05-01 12:03 43.76163 1.46023 38214 ft 483 kts 54°
2026-05-01 12:03 43.79475 1.52240 38213 ft 483 kts 54°
2026-05-01 12:04 43.83462 1.59746 38221 ft 483 kts 54°
2026-05-01 12:04 43.87386 1.67157 38222 ft 480 kts 54°
2026-05-01 12:05 43.91332 1.74642 38232 ft 481 kts 55°
2026-05-01 12:05 43.97178 1.85964 38236 ft 481 kts 56°
2026-05-01 12:06 44.00983 1.93530 38236 ft 481 kts 56°
2026-05-01 12:06 44.04804 2.01197 38241 ft 482 kts 56°
2026-05-01 12:07 44.08612 2.08857 38245 ft 481 kts 56°
2026-05-01 12:07 44.12415 2.16532 38249 ft 481 kts 56°
2026-05-01 12:08 44.16213 2.24219 38257 ft 481 kts 56°
2026-05-01 12:08 44.19975 2.31864 38256 ft 482 kts 56°
2026-05-01 12:09 44.23788 2.39654 38267 ft 485 kts 56°
2026-05-01 12:09 44.27607 2.47448 38277 ft 485 kts 56°
2026-05-01 12:10 44.33010 2.58505 38263 ft 485 kts 56°
2026-05-01 12:11 44.38683 2.70174 38262 ft 487 kts 56°
2026-05-01 12:11 44.42470 2.78009 38271 ft 485 kts 56°
2026-05-01 12:12 44.46252 2.85836 38277 ft 485 kts 56°
2026-05-01 12:12 44.50031 2.93669 38280 ft 486 kts 56°
2026-05-01 12:13 44.53776 3.01458 38281 ft 484 kts 56°
2026-05-01 12:13 44.57550 3.09346 38283 ft 483 kts 56°
2026-05-01 12:14 44.61129 3.17237 38276 ft 482 kts 58°
2026-05-01 12:14 44.64520 3.25378 38274 ft 483 kts 59°
2026-05-01 12:15 44.67841 3.33592 38270 ft 484 kts 60°
2026-05-01 12:15 44.71133 3.41838 38274 ft 483 kts 60°
2026-05-01 12:16 44.74412 3.50104 38275 ft 483 kts 60°
2026-05-01 12:16 44.77687 3.58361 38264 ft 483 kts 60°
2026-05-01 12:17 44.80968 3.66631 38259 ft 483 kts 60°
2026-05-01 12:17 44.84223 3.74859 38261 ft 484 kts 60°
2026-05-01 12:18 44.87481 3.83129 38258 ft 483 kts 60°
2026-05-01 12:18 44.90729 3.91405 38260 ft 480 kts 60°
2026-05-01 12:19 44.93924 3.99568 38268 ft 481 kts 60°
2026-05-01 12:19 44.97146 4.07818 38266 ft 482 kts 60°
2026-05-01 12:20 45.00374 4.16118 38267 ft 481 kts 60°
2026-05-01 12:20 45.03587 4.24410 38264 ft 481 kts 60°
2026-05-01 12:21 45.06809 4.32735 38264 ft 482 kts 60°
2026-05-01 12:21 45.10028 4.41068 38259 ft 482 kts 60°
2026-05-01 12:22 45.13238 4.49410 38262 ft 483 kts 60°
2026-05-01 12:22 45.16448 4.57787 38259 ft 483 kts 60°
2026-05-01 12:23 45.19624 4.66101 38249 ft 481 kts 60°
2026-05-01 12:23 45.22596 4.73890 38250 ft 480 kts 60°
2026-05-01 12:24 45.25725 4.82111 38248 ft 482 kts 60°
2026-05-01 12:24 45.28944 4.90593 38262 ft 482 kts 60°
2026-05-01 12:25 45.33707 5.03201 37302 ft 483 kts 60°
2026-05-01 12:25 45.35290 5.07415 36651 ft 483 kts 60°
2026-05-01 12:26 45.36874 5.11634 35776 ft 484 kts 60°
2026-05-01 12:26 45.40043 5.20086 33929 ft 489 kts 60°
2026-05-01 12:26 45.41637 5.24341 33225 ft 483 kts 61°
2026-05-01 12:27 45.43206 5.28544 32611 ft 478 kts 61°
2026-05-01 12:27 45.46288 5.36812 31404 ft 467 kts 62°
2026-05-01 12:28 45.49878 5.44169 31269 ft 442 kts 46°
2026-05-01 12:28 45.52004 5.47268 31250 ft 434 kts 44°
2026-05-01 12:29 45.58624 5.56175 31303 ft 452 kts 42°
2026-05-01 12:29 45.60980 5.59234 31458 ft 461 kts 41°
2026-05-01 12:29 45.65776 5.65417 32274 ft 467 kts 41°
2026-05-01 12:30 45.70636 5.71675 33064 ft 473 kts 40°
2026-05-01 12:30 45.73087 5.74826 33481 ft 475 kts 40°
2026-05-01 12:30 45.75556 5.77997 33838 ft 478 kts 40°
2026-05-01 12:31 45.78042 5.81188 34232 ft 480 kts 39°
2026-05-01 12:31 45.80538 5.84395 34556 ft 483 kts 39°
2026-05-01 12:31 45.83041 5.87606 34995 ft 481 kts 40°
2026-05-01 12:31 45.85517 5.90785 35447 ft 480 kts 40°
2026-05-01 12:32 45.87997 5.93977 35949 ft 477 kts 40°
2026-05-01 12:32 45.92917 6.00330 36854 ft 474 kts 40°
2026-05-01 12:32 45.95368 6.03509 37288 ft 473 kts 40°
2026-05-01 12:33 45.97747 6.06602 37470 ft 477 kts 40°
2026-05-01 12:33 46.00158 6.09740 37481 ft 476 kts 40°
2026-05-01 12:33 46.02534 6.12826 37298 ft 473 kts 41°
2026-05-01 12:33 46.04940 6.15958 36763 ft 474 kts 41°
2026-05-01 12:34 46.07371 6.19173 36099 ft 476 kts 43°
2026-05-01 12:34 46.09779 6.22454 35280 ft 476 kts 43°
2026-05-01 12:34 46.12180 6.25779 34328 ft 479 kts 44°
2026-05-01 12:34 46.14575 6.29129 33484 ft 478 kts 44°
2026-05-01 12:35 46.16906 6.32415 32850 ft 472 kts 45°
2026-05-01 12:35 46.19234 6.35713 32231 ft 466 kts 45°
2026-05-01 12:35 46.21537 6.38977 31631 ft 460 kts 45°
2026-05-01 12:35 46.23800 6.42205 31075 ft 454 kts 45°
2026-05-01 12:36 46.26040 6.45413 30662 ft 455 kts 45°
2026-05-01 12:36 46.28283 6.48624 30455 ft 452 kts 45°
2026-05-01 12:36 46.32691 6.54951 30322 ft 442 kts 46°
2026-05-01 12:37 46.36788 6.60855 30298 ft 446 kts 46°
2026-05-01 12:37 46.41179 6.67211 30294 ft 445 kts 45°
2026-05-01 12:38 46.45554 6.73534 30296 ft 444 kts 45°
2026-05-01 12:38 46.49911 6.79845 30295 ft 446 kts 45°
2026-05-01 12:39 46.54274 6.86306 30292 ft 444 kts 48°
2026-05-01 12:39 46.58275 6.93028 30298 ft 440 kts 50°
2026-05-01 12:40 46.62185 6.99904 30291 ft 442 kts 51°
2026-05-01 12:40 46.66063 7.06843 30292 ft 441 kts 51°
2026-05-01 12:41 46.69920 7.13805 30292 ft 441 kts 51°
2026-05-01 12:41 46.73758 7.20767 30290 ft 441 kts 51°
2026-05-01 12:42 46.77585 7.27724 30271 ft 440 kts 51°
2026-05-01 12:42 46.81405 7.34699 30282 ft 440 kts 51°
2026-05-01 12:43 46.85183 7.41649 30265 ft 433 kts 51°
2026-05-01 12:43 46.88949 7.48549 30267 ft 435 kts 51°
2026-05-01 12:44 46.92704 7.55446 30239 ft 426 kts 51°
2026-05-01 12:44 46.95708 7.60988 30068 ft 411 kts 51°
2026-05-01 12:45 46.99811 7.68575 28742 ft 403 kts 51°
2026-05-01 12:45 47.01525 7.71745 28166 ft 400 kts 51°
2026-05-01 12:45 47.03246 7.74930 27654 ft 396 kts 51°
2026-05-01 12:46 47.04918 7.78028 27106 ft 394 kts 51°
2026-05-01 12:46 47.06605 7.81163 26640 ft 389 kts 51°
2026-05-01 12:46 47.08282 7.84281 26121 ft 387 kts 51°
2026-05-01 12:46 47.09941 7.87370 25690 ft 384 kts 51°
2026-05-01 12:47 47.11563 7.90472 25175 ft 382 kts 54°
2026-05-01 12:47 47.13012 7.93736 24743 ft 380 kts 58°
2026-05-01 12:47 47.13896 7.95947 24464 ft 378 kts 60°
2026-05-01 12:47 47.15155 7.99331 24020 ft 376 kts 62°
2026-05-01 12:48 47.16341 8.02744 23566 ft 374 kts 63°
2026-05-01 12:48 47.17470 8.06162 23084 ft 371 kts 64°
2026-05-01 12:48 47.18568 8.09579 22615 ft 368 kts 64°
2026-05-01 12:48 47.19642 8.12979 22145 ft 366 kts 65°
2026-05-01 12:49 47.20706 8.16377 21692 ft 364 kts 65°
2026-05-01 12:49 47.21765 8.19689 20706 ft 355 kts 62°
2026-05-01 12:49 47.23338 8.22570 19261 ft 368 kts 40°
2026-05-01 12:49 47.25547 8.24366 18368 ft 362 kts 18°
2026-05-01 12:50 47.28017 8.24845 17412 ft 357 kts 357°
2026-05-01 12:50 47.30405 8.23994 16403 ft 354 kts 336°
2026-05-01 12:50 47.32436 8.21994 15316 ft 350 kts 320°
2026-05-01 12:50 47.34262 8.19606 13998 ft 356 kts 318°
2026-05-01 12:51 47.36109 8.17248 13171 ft 344 kts 320°
2026-05-01 12:51 47.37951 8.15082 12292 ft 334 kts 323°
2026-05-01 12:51 47.41724 8.11272 10639 ft 318 kts 330°
2026-05-01 12:52 47.43314 8.09916 10207 ft 304 kts 331°
2026-05-01 12:52 47.46881 8.07045 8816 ft 284 kts 332°
2026-05-01 12:52 47.48693 8.05931 7576 ft 288 kts 347°
2026-05-01 12:53 47.52500 8.07474 5836 ft 282 kts 43°
2026-05-01 12:53 47.53527 8.09726 5598 ft 252 kts 71°
2026-05-01 12:53 47.53944 8.12156 5217 ft 236 kts 77°
2026-05-01 12:54 47.54273 8.14424 5125 ft 214 kts 77°
2026-05-01 12:54 47.54930 8.18409 5008 ft 187 kts 73°
2026-05-01 12:54 47.55354 8.20162 4967 ft 176 kts 66°
2026-05-01 12:55 47.56476 8.23120 4516 ft 161 kts 55°
2026-05-01 12:55 47.57141 8.24442 4227 ft 167 kts 52°
2026-05-01 12:55 47.57878 8.25761 4073 ft 163 kts 50°
2026-05-01 12:56 47.58609 8.27004 3996 ft 158 kts 49°
2026-05-01 12:56 47.59336 8.28202 3975 ft 157 kts 48°
2026-05-01 12:56 47.60079 8.29409 3972 ft 159 kts 48°
2026-05-01 12:56 47.60827 8.30613 3956 ft 158 kts 49°
2026-05-01 12:57 47.61282 8.32059 3922 ft 158 kts 90°
2026-05-01 12:57 47.60341 8.34921 3944 ft 159 kts 124°
2026-05-01 12:57 47.59707 8.36269 3941 ft 158 kts 126°
2026-05-01 12:58 47.59040 8.37554 3934 ft 158 kts 129°
2026-05-01 12:58 47.58335 8.38805 3940 ft 158 kts 129°
2026-05-01 12:58 47.57621 8.40034 3886 ft 159 kts 130°
2026-05-01 12:59 47.56152 8.42477 3307 ft 156 kts 129°
2026-05-01 12:59 47.55443 8.43640 2998 ft 150 kts 131°
2026-05-01 12:59 47.53956 8.45798 2359 ft 148 kts 131°
2026-05-01 13:00 47.52406 8.47894 2066 ft 154 kts 135°
2026-05-01 13:00 47.51592 8.48937 2030 ft 154 kts 138°
2026-05-01 13:01 47.49968 8.51099 1832 ft 158 kts 132°
2026-05-01 13:01 47.49193 8.52251 1626 ft 157 kts 133°
2026-05-01 13:01 47.47672 8.54325 1430 ft 153 kts 133°
2026-05-01 13:02 47.46987 8.55339 1399 ft 114 kts 139°
2026-05-01 13:07 47.45034 8.55857 1415 ft 0 kts
2026-05-01 13:13 47.45035 8.55857 1409 ft 0 kts